• In India
  • List of Countries
  • For 7 days
  • Water Temperature
  • Satellite Maps
  • Weather Map
  • Weather Widgets
  • user-avatar
    Login

    Hourly Weather Zavadivka

    Today, 18 September, Tuesday

    Time Temperature Precipitation Wind Pressure Humidity
    00:00 +12°C° 0 mm 1 mps 716 mmHg 83%
    01:00 +12°C° 0 mm 1 mps 716 mmHg 83%
    02:00 +12°C° 0 mm 1 mps 715 mmHg 83%
    03:00 +12°C° 0 mm 1 mps 715 mmHg 83%
    04:00 +12°C° 0 mm 1 mps 715 mmHg 83%
    05:00 +11°C° 0 mm 1 mps 715 mmHg 83%
    06:00 +13°C° 0 mm 1 mps 716 mmHg 80%
    07:00 +14°C° 0 mm 1 mps 716 mmHg 76%
    08:00 +15°C° 0 mm 1 mps 716 mmHg 70%
    09:00 +18°C° 0 mm 1 mps 716 mmHg 64%
    10:00 +21°C° 0 mm 1 mps 717 mmHg 58%
    11:00 +23°C° 0 mm 1 mps 717 mmHg 52%
    12:00 +23°C° 0 mm 1 mps 717 mmHg 50%
    13:00 +24°C° 0 mm 1 mps 717 mmHg 48%
    14:00 +24°C° 0 mm 1 mps 716 mmHg 46%
    15:00 +24°C° 0 mm 1 mps 716 mmHg 50%
    16:00 +23°C° 0 mm 1 mps 716 mmHg 55%
    17:00 +23°C° 0 mm 1 mps 715 mmHg 60%
    18:00 +20°C° 0 mm 1 mps 715 mmHg 66%
    19:00 +18°C° 0 mm 1 mps 715 mmHg 73%
    20:00 +15°C° 0 mm 1 mps 715 mmHg 79%
    21:00 +14°C° 0 mm 1 mps 715 mmHg 79%
    22:00 +14°C° 0 mm 1 mps 715 mmHg 79%
    23:00 +13°C° 0 mm 1 mps 715 mmHg 79%

    Tomorrow, 19 September, Wednesday

    Time Temperature Precipitation Wind Pressure Humidity
    00:00 +13°C° 0 mm 1 mps 715 mmHg 78%
    01:00 +13°C° 0 mm 1 mps 715 mmHg 77%
    02:00 +13°C° 0 mm 1 mps 715 mmHg 76%
    03:00 +13°C° 0 mm 1 mps 715 mmHg 75%
    04:00 +12°C° 0 mm 1 mps 715 mmHg 75%
    05:00 +12°C° 0 mm 1 mps 715 mmHg 75%
    06:00 +13°C° 0 mm 1 mps 715 mmHg 73%
    07:00 +15°C° 0 mm 1 mps 715 mmHg 70%
    08:00 +16°C° 0 mm 1 mps 716 mmHg 68%
    09:00 +18°C° 0 mm 2 mps 716 mmHg 61%
    10:00 +20°C° 0 mm 2 mps 716 mmHg 53%
    11:00 +23°C° 0 mm 2 mps 717 mmHg 46%
    12:00 +24°C° 0 mm 2 mps 716 mmHg 44%
    13:00 +24°C° 0 mm 2 mps 716 mmHg 43%
    14:00 +25°C° 0 mm 2 mps 716 mmHg 42%
    15:00 +25°C° 0 mm 2 mps 716 mmHg 47%
    16:00 +24°C° 0 mm 1 mps 716 mmHg 51%
    17:00 +23°C° 0 mm 1 mps 716 mmHg 56%
    18:00 +21°C° 0 mm 1 mps 716 mmHg 62%
    19:00 +19°C° 0 mm 1 mps 715 mmHg 68%
    20:00 +15°C° 0 mm 1 mps 715 mmHg 74%
    21:00 +15°C° 0 mm 1 mps 715 mmHg 75%
    22:00 +15°C° 0 mm 1 mps 715 mmHg 75%
    23:00 +14°C° 0 mm 1 mps 715 mmHg 76%

    Day after tomorrow, 20 September, Thursday

    Time Temperature Precipitation Wind Pressure Humidity
    00:00 +14°C° 0 mm 1 mps 715 mmHg 76%
    01:00 +14°C° 0 mm 1 mps 715 mmHg 76%
    02:00 +14°C° 0 mm 1 mps 715 mmHg 76%
    03:00 +13°C° 0 mm 1 mps 715 mmHg 76%
    04:00 +13°C° 0 mm 1 mps 715 mmHg 77%
    05:00 +13°C° 0 mm 1 mps 715 mmHg 77%
    06:00 +14°C° 0 mm 1 mps 715 mmHg 74%
    07:00 +16°C° 0 mm 1 mps 715 mmHg 72%
    08:00 +16°C° 0 mm 0 mps 716 mmHg 69%
    09:00 +18°C° 0 mm 0 mps 716 mmHg 62%
    10:00 +22°C° 0 mm 1 mps 716 mmHg 55%
    11:00 +24°C° 0 mm 1 mps 716 mmHg 49%
    12:00 +25°C° 0 mm 1 mps 716 mmHg 47%
    13:00 +25°C° 0 mm 1 mps 716 mmHg 45%
    14:00 +26°C° 0 mm 1 mps 716 mmHg 43%
    15:00 +25°C° 0 mm 1 mps 715 mmHg 48%
    16:00 +24°C° 0 mm 1 mps 715 mmHg 54%
    17:00 +23°C° 0 mm 1 mps 715 mmHg 59%
    18:00 +21°C° 0 mm 1 mps 714 mmHg 65%
    19:00 +19°C° 0 mm 1 mps 714 mmHg 71%
    20:00 +16°C° 0 mm 1 mps 714 mmHg 77%
    21:00 +16°C° 0 mm 1 mps 714 mmHg 78%
    22:00 +15°C° 0 mm 1 mps 714 mmHg 80%
    23:00 +15°C° 0 mm 1 mps 714 mmHg 81%

    21 September, Friday

    Time Temperature Precipitation Wind Pressure Humidity
    00:00 +15°C° 0 mm 1 mps 713 mmHg 81%
    01:00 +14°C° 0 mm 1 mps 713 mmHg 81%
    02:00 +14°C° 0 mm 1 mps 713 mmHg 81%
    03:00 +14°C° 0 mm 1 mps 713 mmHg 81%
    04:00 +14°C° 0 mm 1 mps 713 mmHg 81%
    05:00 +14°C° 0 mm 1 mps 713 mmHg 81%
    06:00 +15°C° 0 mm 1 mps 713 mmHg 78%
    07:00 +16°C° 0 mm 1 mps 713 mmHg 74%
    08:00 +18°C° 0 mm 1 mps 713 mmHg 71%
    09:00 +19°C° 0 mm 2 mps 713 mmHg 63%
    10:00 +21°C° 0 mm 2 mps 713 mmHg 55%
    11:00 +24°C° 0 mm 2 mps 713 mmHg 46%
    12:00 +24°C° 0 mm 2 mps 713 mmHg 45%
    13:00 +25°C° 0 mm 3 mps 713 mmHg 43%
    14:00 +25°C° 0 mm 3 mps 712 mmHg 42%
    15:00 +25°C° 0 mm 2 mps 712 mmHg 46%
    16:00 +24°C° 0 mm 2 mps 711 mmHg 50%
    17:00 +23°C° 0 mm 2 mps 711 mmHg 55%
    18:00 +20°C° 0 mm 2 mps 711 mmHg 59%
    19:00 +18°C° 0 mm 2 mps 710 mmHg 64%
    20:00 +16°C° 0 mm 2 mps 710 mmHg 68%
    21:00 +16°C° 0 mm 2 mps 710 mmHg 68%
    22:00 +16°C° 0 mm 2 mps 710 mmHg 68%
    23:00 +15°C° 0 mm 2 mps 710 mmHg 67%

    22 September, Saturday

    Time Temperature Precipitation Wind Pressure Humidity
    00:00 +15°C° 0 mm 2 mps 709 mmHg 68%
    01:00 +15°C° 0 mm 2 mps 709 mmHg 68%
    02:00 +15°C° 0 mm 2 mps 709 mmHg 69%
    03:00 +15°C° 0 mm 2 mps 709 mmHg 68%
    04:00 +14°C° 0 mm 3 mps 708 mmHg 68%
    05:00 +14°C° 0 mm 3 mps 708 mmHg 67%
    06:00 +14°C° 0 mm 3 mps 709 mmHg 67%
    07:00 +16°C° 0 mm 3 mps 709 mmHg 66%
    08:00 +16°C° 0 mm 3 mps 710 mmHg 66%
    09:00 +14°C° 0.1 mm 4 mps 710 mmHg 67%
    10:00 +14°C° 0.1 mm 4 mps 711 mmHg 69%
    11:00 +13°C° 0.1 mm 4 mps 711 mmHg 70%
    12:00 +12°C° 0.7 mm 4 mps 711 mmHg 77%
    13:00 +10°C° 0.7 mm 5 mps 711 mmHg 83%
    14:00 +8°C° 0.7 mm 5 mps 711 mmHg 89%
    15:00 +8°C° 2.9 mm 4 mps 712 mmHg 91%
    16:00 +7°C° 2.9 mm 4 mps 712 mmHg 92%
    17:00 +6°C° 2.9 mm 4 mps 712 mmHg 94%
    18:00 +7°C° 0.5 mm 3 mps 713 mmHg 93%
    19:00 +7°C° 0.5 mm 3 mps 713 mmHg 93%
    20:00 +7°C° 0.5 mm 2 mps 714 mmHg 93%
    21:00 +6°C° 0 mm 2 mps 714 mmHg 93%
    22:00 +6°C° 0 mm 2 mps 714 mmHg 93%
    23:00 +6°C° 0 mm 1 mps 714 mmHg 92%

    23 September, Sunday

    Time Temperature Precipitation Wind Pressure Humidity
    00:00 +6°C° 0 mm 1 mps 714 mmHg 93%
    01:00 +5°C° 0 mm 2 mps 714 mmHg 93%
    02:00 +4°C° 0 mm 2 mps 714 mmHg 93%
    03:00 +4°C° 0 mm 2 mps 714 mmHg 93%
    04:00 +5°C° 0 mm 1 mps 714 mmHg 93%
    05:00 +5°C° 0 mm 1 mps 715 mmHg 94%
    06:00 +6°C° 0 mm 1 mps 715 mmHg 91%
    07:00 +7°C° 0 mm 1 mps 715 mmHg 89%
    08:00 +8°C° 0 mm 1 mps 715 mmHg 87%
    09:00 +8°C° 0 mm 2 mps 715 mmHg 78%
    10:00 +10°C° 0 mm 2 mps 715 mmHg 69%
    11:00 +12°C° 0 mm 3 mps 715 mmHg 60%
    12:00 +13°C° 0 mm 3 mps 715 mmHg 57%
    13:00 +13°C° 0 mm 3 mps 715 mmHg 53%
    14:00 +14°C° 0 mm 3 mps 714 mmHg 50%
    15:00 +13°C° 0.1 mm 3 mps 714 mmHg 53%
    16:00 +14°C° 0.1 mm 2 mps 713 mmHg 56%
    17:00 +14°C° 0.1 mm 2 mps 713 mmHg 59%
    18:00 +12°C° 0 mm 2 mps 713 mmHg 64%
    19:00 +9°C° 0 mm 2 mps 712 mmHg 69%
    20:00 +7°C° 0 mm 2 mps 712 mmHg 73%
    21:00 +7°C° 0 mm 2 mps 711 mmHg 73%
    22:00 +7°C° 0 mm 2 mps 711 mmHg 73%
    23:00 +5°C° 0 mm 3 mps 710 mmHg 73%
    Show more